Weather History for Monarch Pass, CO

Change the Weather History Date:

Friday, February 1, 2013

  Actual Average (KGUC) Record (KGUC)
Temperature  
Mean Temperature 14 °F -  
Max Temperature 17 °F 23 °F 33 °F (2006)
Min Temperature 10 °F 0 °F -20 °F (2002)
Degree Days  
Heating Degree Days 52    
Moisture  
Dew Point 10 °F    
Average Humidity 88    
Maximum Humidity 93    
Minimum Humidity 85    
Precipitation  
Precipitation 0.00 in - - ()
Sea Level Pressure  
Sea Level Pressure 30.29 in    
Wind  
Wind Speed - (North)    
Max Wind Speed -    
Max Gust Speed -    
Averages and records for this station are not official NWS values.
T = Trace of Precipitation, MM = Missing Value Source: NWS Daily Summary

Daily Weather History Graph

Daily Weather History Graph

Search for Another Location

Airport:

Trip Planner

Search our weather history database for the weather conditions in past years. The results will help you decide how hot, cold, wet, or windy it might be!

Date:

Astronomy

Feb. 01, 2013 Rise Set
Actual Time 7:10 AM MST 5:27 PM MST
Civil Twilight 6:42 AM MST 5:55 PM MST
Nautical Twilight 6:10 AM MST 6:27 PM MST
Astronomical Twilight 5:39 AM MST 6:58 PM MST
Moon 11:32 PM MST (2/1) 9:50 AM MST (2/1)
Length of Visible Light 11h 13m
Length of Day
10h 17m
Waning Gibbous, 69% of the Moon is Illuminated
Feb 1
Waning Gibbous
Feb 3
Last Quarter
Feb 10
New
Feb 17
First Quarter
Feb 25
Full

Hourly Weather History & Observations

Time (MST) Temp. Dew Point Humidity Pressure Visibility Wind Dir Wind Speed Gust Speed Precip Events Conditions
12:17 AM 10.4 °F 6.8 °F 85% 30.26 in - North - - N/A   Mostly Cloudy
12:37 AM 10.4 °F 6.8 °F 85% 30.25 in - North - - N/A   Overcast
12:57 AM 10.4 °F 6.8 °F 85% 30.25 in - North - - N/A   Overcast
1:17 AM 10.4 °F 8.6 °F 92% 30.25 in - North - - N/A   Overcast
1:37 AM 10.4 °F 8.6 °F 92% 30.25 in - North - - N/A   Overcast
2:17 AM 10.4 °F 8.6 °F 92% 30.25 in - North - - N/A   Overcast
2:37 AM 10.4 °F 8.6 °F 92% 30.25 in - North - - N/A   Overcast
3:17 AM 12.2 °F 8.6 °F 85% 30.25 in - North - - N/A   Unknown
3:37 AM 12.2 °F 8.6 °F 85% 30.25 in - North - - N/A   Overcast
4:17 AM 12.2 °F 8.6 °F 85% 30.25 in - North - - N/A   Overcast
4:37 AM 12.2 °F 8.6 °F 85% 30.24 in - North - - N/A   Overcast
4:57 AM 12.2 °F 8.6 °F 85% 30.25 in - North - - N/A   Unknown
5:17 AM 12.2 °F 8.6 °F 85% 30.25 in - North - - N/A   Unknown
5:37 AM 12.2 °F 8.6 °F 85% 30.25 in - North - - N/A   Unknown
5:57 AM 12.2 °F 8.6 °F 85% 30.25 in - North - - N/A   Unknown
6:17 AM 12.2 °F 8.6 °F 85% 30.25 in - North - - N/A   Overcast
6:37 AM 12.2 °F 8.6 °F 85% 30.24 in - North - - N/A   Mostly Cloudy
6:57 AM 12.2 °F 8.6 °F 85% 30.25 in - North - - N/A   Unknown
7:17 AM 12.2 °F 8.6 °F 85% 30.25 in - North - - N/A   Unknown
7:37 AM 12.2 °F 8.6 °F 85% 30.25 in - North - - N/A   Unknown
7:57 AM 12.2 °F 8.6 °F 85% 30.27 in - North - - N/A   Unknown
8:17 AM 12.2 °F 8.6 °F 85% 30.27 in - North - - N/A   Unknown
8:37 AM 12.2 °F 8.6 °F 85% 30.27 in - North - - N/A   Unknown
8:57 AM 12.2 °F 8.6 °F 85% 30.28 in - North - - N/A   Unknown
9:17 AM 12.2 °F 8.6 °F 85% 30.27 in - North - - N/A   Unknown
9:37 AM 12.2 °F 10.4 °F 92% 30.28 in - North - - N/A   Unknown
9:57 AM 12.2 °F 10.4 °F 92% 30.29 in - North - - N/A   Unknown
10:17 AM 14.0 °F 10.4 °F 86% 30.29 in - North - - N/A   Overcast
10:37 AM 14.0 °F 10.4 °F 86% 30.29 in - North - - N/A   Overcast
10:57 AM 14.0 °F 10.4 °F 86% 30.29 in - North - - N/A   Overcast
11:17 AM 14.0 °F 12.2 °F 93% 30.29 in - North - - N/A   Overcast
11:37 AM 14.0 °F 12.2 °F 93% 30.29 in - North - - N/A   Overcast
11:57 AM 14.0 °F 12.2 °F 93% 30.29 in - North - - N/A   Overcast
12:17 PM 14.0 °F 12.2 °F 93% 30.27 in - North - - N/A   Overcast
12:37 PM 14.0 °F 12.2 °F 93% 30.26 in - North - - N/A   Mostly Cloudy
12:57 PM 15.8 °F 12.2 °F 86% 30.27 in - North - - N/A   Unknown
1:17 PM 15.8 °F 12.2 °F 86% 30.26 in - North - - N/A   Overcast
1:37 PM 14.0 °F 12.2 °F 93% 30.27 in - North - - N/A   Overcast
1:57 PM 15.8 °F 12.2 °F 86% 30.26 in - North - - N/A   Unknown
2:17 PM 15.8 °F 14.0 °F 93% 30.27 in - North - - N/A   Unknown
2:37 PM 15.8 °F 14.0 °F 93% 30.27 in - North - - N/A   Overcast
2:57 PM 17.6 °F 14.0 °F 86% 30.28 in - North - - N/A   Overcast
3:17 PM 15.8 °F 12.2 °F 86% 30.28 in - North - - N/A   Unknown
3:37 PM 15.8 °F 14.0 °F 93% 30.29 in - North - - N/A   Unknown
3:57 PM 14.0 °F 12.2 °F 93% 30.29 in - North - - N/A   Unknown
4:17 PM 14.0 °F 12.2 °F 93% 30.29 in - North - - N/A   Unknown
4:37 PM 14.0 °F 12.2 °F 93% 30.29 in - North - - N/A   Unknown
4:57 PM 14.0 °F 12.2 °F 93% 30.29 in - North - - N/A   Unknown
5:17 PM 14.0 °F 12.2 °F 93% 30.29 in - North - - N/A   Unknown
5:37 PM 14.0 °F 12.2 °F 93% 30.29 in - North - - N/A   Unknown
5:57 PM 14.0 °F 10.4 °F 86% 30.29 in - North - - N/A   Unknown
6:17 PM 14.0 °F 10.4 °F 86% 30.30 in - North - - N/A   Unknown
6:37 PM 14.0 °F 10.4 °F 86% 30.30 in - North - - N/A   Unknown
6:57 PM 14.0 °F 10.4 °F 86% 30.32 in - North - - N/A   Unknown
7:17 PM 14.0 °F 10.4 °F 86% 30.33 in - North - - N/A   Unknown
7:37 PM 14.0 °F 10.4 °F 86% 30.34 in - North - - N/A   Unknown
7:57 PM 14.0 °F 10.4 °F 86% 30.34 in - North - - N/A   Unknown
8:17 PM 12.2 °F 10.4 °F 92% 30.34 in - North - - N/A   Unknown
8:37 PM 12.2 °F 10.4 °F 92% 30.34 in - North - - N/A   Unknown
8:57 PM 12.2 °F 10.4 °F 92% 30.34 in - North - - N/A   Unknown
9:17 PM 12.2 °F 10.4 °F 92% 30.34 in - North - - N/A   Unknown
9:37 PM 12.2 °F 10.4 °F 92% 30.35 in - North - - N/A   Unknown
9:57 PM 12.2 °F 10.4 °F 92% 30.36 in - North - - N/A   Unknown
10:17 PM 12.2 °F 8.6 °F 85% 30.36 in - North - - N/A   Unknown
10:37 PM 12.2 °F 8.6 °F 85% 30.36 in - North - - N/A   Unknown
10:57 PM 12.2 °F 8.6 °F 85% 30.37 in - North - - N/A   Unknown
11:17 PM 12.2 °F 8.6 °F 85% 30.37 in - North - - N/A   Unknown
11:37 PM 12.2 °F 10.4 °F 92% 30.37 in - North - - N/A   Unknown
11:57 PM 12.2 °F 8.6 °F 85% 30.38 in - North - - N/A   Unknown